Location: Coed Ely
(51.5661°N, 3.4150°W)
Time: 20:09:50
(UTC+00:00)

Cosmos 1758 Rocket - Pass Details

Date: 28 January 2021
Orbit: 602 x 636 km, 82.5° (Epoch: 27 February)

Event Time Altitude Azimuth Distance (km) Brightness Sun altitude
Rises 18:48:42 0° 190° (S) 2,910 7.2 -17.4°
Reaches altitude 10° 18:50:55 10° 190° (S) 2,011 6.4 -17.7°
Maximum altitude 18:55:24 87° 276° (W) 644 3.6 -18.4°
Drops below altitude 10° 18:59:56 10° 10° (N) 2,037 6.1 -19.1°
Sets 19:02:12 0° 11° (N) 2,951 6.9 -19.5°
